Location: Newark
(51.3000°N, 178.2000°W)
Time: 02:05:15
(UTC+00:00)

Tiangong - Pass Details

Date: 27 June 2021
Orbit: 373 x 386 km, 41.5° (Epoch: 02 August)

Event Time Altitude Azimuth Distance (km) Brightness Sun altitude
Exits shadow 14:24:39 12° 205° (SSW) 1,259 3.0 -8.6°
Maximum altitude 14:25:43 14° 183° (S) 1,177 3.0 -8.5°
Drops below altitude 10° 14:27:26 10° 150° (SSE) 1,388 3.6 -8.3°
Sets 14:30:12 0° 123° (ESE) 2,243 5.0 -8.1°
